EW4609 Weather Reports


time (UTC)temp
F
wind
direction
speed
knots
gust
knots
rain 1hr
in
rain 24hr
in
rain mn
in
humidity
%
barometer
mb
20260509134510 71 267 0.0 0.0 0.00 0.00 0.00 1 1010.8
20260509133007 70 267 0.0 0.0 0.00 0.00 0.00 1 1010.6
20260509131503 70 267 0.0 0.0 0.00 0.00 0.00 1 1010.6
20260509130059 69 267 0.0 0.0 0.00 0.00 0.00 1 1010.6
20260509124559 69 267 0.0 0.0 0.00 0.00 0.00 1 1010.6
20260509123101 68 266 0.0 0.0 0.00 0.00 0.00 1 1010.6
20260509121555 68 266 0.0 0.0 0.00 0.00 0.00 1 1010.5
20260509120043 68 266 0.0 0.0 0.00 0.00 0.00 1 1010.3
20260509113107 67 264 0.0 0.0 0.00 0.00 0.00 1 1009.9
20260509111552 67 264 0.0 0.0 0.00 0.00 0.00 1 1009.4
20260509110047 67 264 0.0 0.0 0.00 0.00 0.00 1 1009.2
20260509104543 68 264 0.0 0.0 0.00 0.00 0.00 1 1009.1
20260509103038 68 264 0.0 0.0 0.00 0.00 0.00 1 1009.1
20260509101537 69 264 0.0 0.0 0.00 0.00 0.00 1 1009.1
20260509100028 69 264 0.0 0.0 0.00 0.00 0.00 1 1008.9
20260509094525 70 264 0.0 0.0 0.00 0.00 0.00 1 1008.5
20260509093003 70 264 0.0 0.0 0.00 0.00 0.00 1 1008.4
20260509091601 70 264 0.0 0.0 0.00 0.00 0.00 1 1008.3
20260509090055 71 267 0.0 0.0 0.00 0.00 0.00 1 1006.9
20260509084537 70 268 0.0 0.0 0.00 0.00 0.00 1 1006.9
20260509083030 70 311 0.0 0.0 0.00 0.00 0.00 1 1006.8
20260509081506 70 311 0.0 0.0 0.00 0.00 0.00 1 1007.0
20260509080056 70 311 0.0 0.0 0.00 0.00 0.00 1 1008.5
20260509074540 70 311 0.0 0.0 0.00 0.00 0.00 1 1009.4
20260509073021 70 329 0.0 0.0 0.00 0.00 0.00 1 1009.8
20260509071520 70 329 0.0 0.0 0.00 0.00 0.00 1 1010.5
20260509070001 70 335 0.0 0.0 0.00 0.00 0.00 1 1010.8
20260509064557 70 335 0.0 0.0 0.00 0.00 0.00 1 1011.3
20260509063104 69 336 0.0 0.0 0.00 0.00 0.00 1 1011.1
20260509061547 69 336 0.0 0.0 0.00 0.00 0.00 1 1011.0
20260509060043 69 336 0.0 0.0 0.00 0.00 0.00 1 1011.1
20260509054539 69 336 0.0 0.0 0.00 0.00 0.00 1 1011.4
20260509053042 70 336 0.0 0.0 0.00 0.00 0.00 1 1011.5
20260509051531 70 336 0.0 0.0 0.00 0.00 0.00 1 1011.7
20260509050025 70 336 0.0 0.0 0.00 0.00 0.00 1 1010.7
20260509044504 71 336 0.0 0.0 0.00 0.00 0.00 1 1010.6
20260509043046 71 336 0.0 0.0 0.00 0.00 0.00 1 1010.4
20260509041539 71 336 0.0 0.0 0.00 0.00 0.00 1 1010.3
20260509040015 71 336 0.0 0.0 0.00 0.00 0.00 1 1010.4
20260509034511 71 336 0.0 0.0 0.00 0.00 0.00 1 1010.8
20260509033103 71 336 0.0 0.0 0.00 0.00 0.00 1 1010.7
20260509031545 71 336 0.0 0.0 0.00 0.00 0.00 1 1010.0
20260509030026 71 336 0.0 0.0 0.00 0.00 0.00 1 1009.6
20260509024519 71 336 0.0 0.0 0.00 0.00 0.00 1 1009.3
20260509023058 71 336 0.0 0.0 0.00 0.00 0.00 1 1009.0
20260509021554 71 336 0.0 0.0 0.00 0.00 0.00 1 1009.1
20260509020031 71 336 0.0 0.0 0.00 0.00 0.00 1 1008.6
20260509014528 72 336 0.0 0.0 0.00 0.00 0.00 1 1009.0
20260509013010 72 336 0.0 0.0 0.00 0.00 0.00 1 1009.1
20260509011508 72 336 0.0 0.0 0.00 0.00 0.00 1 1009.1
20260509010007 72 336 0.0 0.0 0.00 0.00 0.00 1 1008.7
20260509004602 72 336 0.0 0.0 0.00 0.00 0.00 1 1008.5
20260509003055 72 336 0.0 0.0 0.00 0.00 0.00 1 1008.4
20260509001553 72 336 0.0 0.0 0.00 0.00 0.00 1 1008.4
20260509000047 73 336 0.0 0.0 0.00 0.00 0.00 1 1008.5
20260508234541 73 336 0.0 0.0 0.00 0.00 0.00 1 1008.6
20260508233014 73 336 0.0 0.0 0.00 0.00 0.00 1 1008.9
20260508231509 73 336 0.0 0.0 0.00 0.00 0.00 1 1008.9
20260508230053 74 336 0.0 0.0 0.00 0.00 0.00 1 1008.9
20260508224607 74 336 0.0 0.0 0.00 0.00 0.00 1 1008.8
20260508223044 74 336 0.0 0.0 0.00 0.00 0.00 1 1008.9
20260508221552 74 335 0.0 0.0 0.00 0.00 0.00 1 1008.9
20260508220036 74 336 0.0 0.0 0.00 0.00 0.00 1 1009.0
20260508214538 74 17 0.0 0.0 0.00 0.00 0.00 3 1009.1
20260508213032 74 15 0.0 0.0 0.00 0.00 0.00 3 1009.3
20260508211525 73 14 0.0 0.0 0.00 0.00 0.00 1 1009.6
20260508210118 73 14 0.0 0.0 0.00 0.00 0.00 2 1009.8
20260508204556 72 13 0.0 0.0 0.00 0.00 0.00 1 1009.7
20260508203059 71 12 0.0 0.0 0.00 0.00 0.00 1 1010.2
20260508201537 72 12 0.0 0.0 0.00 0.00 0.00 1 1011.0
20260508200037 72 12 0.0 0.0 0.00 0.00 0.00 1 1011.4
20260508194511 73 13 0.0 0.0 0.00 0.00 0.00 3 1011.3
20260508193106 73 13 0.0 0.0 0.00 0.00 0.00 1 1011.2
20260508191539 73 13 0.0 0.0 0.00 0.00 0.00 1 1011.4
20260508190035 73 13 0.0 0.0 0.00 0.00 0.00 1 1011.4
20260508184523 73 12 0.0 0.0 0.00 0.00 0.00 1 1011.7
20260508183010 73 13 0.0 0.0 0.00 0.00 0.00 1 1011.8
20260508181601 72 13 0.0 0.0 0.00 0.00 0.00 2 1011.9
20260508180043 73 10 0.0 0.0 0.00 0.00 0.00 4 1012.2
20260508174527 72 13 0.0 0.0 0.00 0.00 0.00 4 1012.5
20260508173026 72 13 0.0 0.0 0.00 0.00 0.00 3 1012.7
20260508171529 72 13 0.0 0.0 0.00 0.00 0.00 2 1012.9
20260508170013 71 13 0.0 0.0 0.00 0.00 0.00 4 1013.0
20260508164509 70 13 0.0 0.0 0.00 0.00 0.00 2 1013.4
20260508163004 69 17 0.0 0.0 0.00 0.00 0.00 1 1013.6
20260508161600 68 17 0.0 0.0 0.00 0.00 0.00 4 1014.0
20260508154540 67 15 0.0 0.0 0.00 0.00 0.00 1 1014.4
20260508153040 67 13 0.0 0.0 0.00 0.00 0.00 1 1014.5
20260508151522 66 13 0.0 0.0 0.00 0.00 0.00 1 1014.7
20260508150026 66 13 0.0 0.0 0.00 0.00 0.00 1 1014.8
20260508144510 65 13 0.0 0.0 0.00 0.00 0.00 1 1014.8
20260508143005 65 13 0.0 0.0 0.00 0.00 0.00 1 1014.9
20260508141540 64 13 0.0 0.0 0.00 0.00 0.00 1 1014.8
20260508140042 63 13 0.0 0.0 0.00 0.00 0.00 1 1015.0